This demonstration page uses our WeatherBlox Daily Observations layout. Learn more.

Left ArrowRight Arrow

Hourly Observations for December 8, 2019

Temp ( °F °C ) Dew Point ( °F °C ) Humidity (%) Winds ( mph kmh ) Pressure ( in mb ) Visibility ( mi km ) Precip ( " mm )
12:53 am 00:53 Cloudy 22 -5.6 19 -7.2 89 89 NNE 14 22 29.85 1011 10 16 0.00 0.00
1:22 am 01:22 Cloudy 22 -5.6 19 -7.2 89 89 NE 13 20 29.94 1014 10 16 0.00 0.00
1:53 am 01:53 Cloudy with Light Snow 23 -5 19 -7.2 85 85 NE 12 19 29.83 1010 2 3 0.00 0.00
2:01 am 02:01 Cloudy with Light Snow 23 -5 20 -6.7 88 88 NE 14 22 29.91 1013 2 3 0.01 0.25
2:05 am 02:05 Cloudy with Light Snow 23 -5 20 -6.7 88 88 ENE 14 22 29.90 1013 2 3 0.01 0.25
2:28 am 02:28 Cloudy with Light Snow 23 -5 20 -6.7 88 88 E 17 28 29.91 1013 2 3 0.01 0.25
2:38 am 02:38 Cloudy with Light Snow 23 -5 20 -6.7 88 88 E 18 30 29.91 1013 2 2 0.01 0.25
2:53 am 02:53 Cloudy with Light Snow 23 -5 19 -7.2 85 85 ENE 17 28 29.82 1010 2 3 0.01 0.25
3:11 am 03:11 Cloudy with Light Snow 22 -5.6 19 -7.2 89 89 ENE 17 28 29.91 1013 2 3 0.01 0.25
3:18 am 03:18 Cloudy with Light Snow 22 -5.6 18 -7.8 85 85 ENE 16 26 29.91 1013 3 5 0.01 0.25
3:31 am 03:31 Cloudy with Light Snow 20 -6.7 17 -8.3 89 89 ENE 18 30 29.92 1013 3 4 0.01 0.25
3:41 am 03:41 Windy with Snow Likely 20 -6.7 17 -8.3 89 89 ENE 20 31 29.92 1013 2 2 0.01 0.25
3:48 am 03:48 Windy with Snow Likely 19 -7 16 -9 86 86 ENE 20 31 29.93 1013 1 2 0.02 0.51
3:53 am 03:53 Windy with Snow Likely 20 -6.7 16 -8.9 85 85 ENE 21 33 29.83 1010 1 2 0.02 0.51
4:26 am 04:26 Mostly Cloudy with Light Snow 19 -7.2 16 -8.9 88 88 ENE 21 33 29.94 1014 1 1 0.01 0.25
4:42 am 04:42 Mostly Cloudy with Snow 18 -7.8 15 -9.4 88 88 ENE 17 28 29.95 1014 1 1 0.02 0.51
4:53 am 04:53 Mostly Cloudy with Light Snow 18 -7.8 15 -9.4 88 88 ENE 16 26 29.85 1011 1 1 0.03 0.76
5:07 am 05:07 Mostly Cloudy with Light Snow 18 -7.8 15 -9.4 88 88 ENE 18 30 29.95 1014 1 1 0.00 0.00
5:26 am 05:26 Mostly Cloudy with Light Snow 18 -7.8 14 -10 84 84 ENE 18 30 29.96 1015 1 2 0.01 0.25
5:33 am 05:33 Cloudy with Light Snow 18 -7.8 14 -10 84 84 ENE 18 30 29.97 1015 2 3 0.02 0.51
5:49 am 05:49 Cloudy with Light Snow 18 -8 16 -9 93 93 NE 13 20 29.98 1015 1 2 0.02 0.51
5:50 am 05:50 Cloudy with Light Snow 18 -7.8 15 -9.4 88 88 NE 13 20 29.88 1012 1 2 0.02 0.51
6:01 am 06:01 Cloudy with Light Snow 17 -8.3 14 -10 88 88 NE 18 30 29.99 1016 1 1 0.00 0.00
6:15 am 06:15 Mostly Cloudy with Snow 17 -8.3 14 -10 88 88 NE 16 26 29.99 1016 1 1 0.02 0.51
6:38 am 06:38 Mostly Cloudy with Light Snow 16 -8.9 12 -11.1 84 84 NE 17 28 30.01 1016 1 2 0.03 0.76
6:53 am 06:53 Mostly Cloudy with Light Snow 15 -9.4 12 -11.1 88 88 NE 17 28 29.93 1013 1 1 0.04 1.02
7:04 am 07:04 Cloudy with Light Snow 15 -9.4 11 -11.7 84 84 NE 18 30 30.03 1017 1 1 0.00 0.00
7:10 am 07:10 Windy with Snow Likely 14 -10 10 -12.2 84 84 NE 22 35 30.04 1017 2 2 0.00 0.00
7:14 am 07:14 Cloudy with Light Snow 14 -10 10 -12.2 84 84 ENE 18 30 30.04 1017 3 5 0.00 0.00
7:24 am 07:24 Cloudy with Light Snow 14 -10 10 -12.2 84 84 NE 17 28 30.04 1017 3 4 0.01 0.25
7:35 am 07:35 Cloudy with Light Snow 15 -9.4 10 -12.2 80 80 NE 18 30 30.05 1018 4 6 0.01 0.25
7:53 am 07:53 Cloudy 14 -10 10 -12.2 84 84 NE 16 26 29.96 1015 10 16 0.01 0.25
8:19 am 08:19 Cloudy with Light Snow 14 -10 10 -12.2 84 84 NE 18 30 30.09 1019 3 4 0.00 0.00
8:29 am 08:29 Cloudy with Light Snow 14 -10 9 -12.8 80 80 NE 16 26 30.09 1019 1 2 0.00 0.00
8:38 am 08:38 Mostly Cloudy with Snow 14 -10 10 -12.2 84 84 NE 14 22 30.10 1019 1 1 0.00 0.00
8:45 am 08:45 Mostly Cloudy with Snow 13 -10.6 9 -12.8 84 84 NE 17 28 30.11 1020 1 1 0.00 0.00
8:53 am 08:53 Mostly Cloudy with Snow 12 -11.1 8 -13.3 84 84 NE 18 30 30.02 1017 0 0 0.01 0.25
9:16 am 09:16 Mostly Cloudy with Snow 12 -11.1 8 -13.3 84 84 NE 17 28 30.14 1021 1 1 0.01 0.25
9:41 am 09:41 Mostly Cloudy with Snow 11 -11.7 8 -13.3 88 88 NE 17 28 30.16 1021 0 0 0.02 0.51
9:51 am 09:51 Mostly Cloudy with Snow 10 -12 9 -13 92 92 NE 13 20 30.17 1022 1 1 0.03 0.76
9:53 am 09:53 Mostly Cloudy with Snow 12 -11.1 8 -13.3 84 84 NE 14 22 30.06 1018 1 1 0.03 0.76
10:05 am 10:05 Cloudy with Light Snow 11 -11.7 7 -13.9 84 84 NE 15 24 30.19 1022 1 2 0.00 0.00
10:22 am 10:22 Cloudy with Light Snow 12 -11 7 -14 79 79 ENE 18 30 30.18 1022 2 3 0.00 0.00
10:28 am 10:28 Cloudy with Light Snow 12 -11.1 7 -13.9 80 80 ENE 16 26 30.18 1022 2 3 0.01 0.25
10:49 am 10:49 Cloudy with Light Snow 12 -11 7 -14 79 79 ENE 12 19 30.19 1022 3 5 0.01 0.25
10:53 am 10:53 Cloudy with Light Snow 12 -11.1 7 -13.9 80 80 ENE 10 17 30.09 1019 4 6 0.01 0.25
11:33 am 11:33 Mostly Cloudy 12 -11.1 6 -14.4 77 77 ENE 10 17 30.21 1023 9 14 0.00 0.00
11:42 am 11:42 Mostly Cloudy 12 -11.1 6 -14.4 77 77 NE 10 17 30.22 1023 10 16 0.00 0.00
11:47 am 11:47 Mostly Cloudy 12 -11 7 -14 79 79 NNE 8 13 30.22 1023 10 16 0.00 0.00
11:53 am 11:53 Mostly Cloudy 12 -11.1 6 -14.4 77 77 NE 8 13 30.12 1020 10 16 0.00 0.00
12:53 pm 12:53 Cloudy 12 -11.1 6 -14.4 77 77 NE 7 11 30.14 1021 9 14 0.00 0.00
1:53 pm 13:53 Cloudy with Light Snow 12 -11.1 6 -14.4 77 77 NNE 6 9 30.14 1021 5 8 0.00 0.00
2:34 pm 14:34 Cloudy with Light Snow 12 -11.1 6 -14.4 77 77 NNE 3 6 30.25 1025 5 8 0.00 0.00
2:53 pm 14:53 Cloudy 11 -11.7 5 -15 77 77 Calm 30.16 1021 10 16 0.00 0.00
3:05 pm 15:05 Cloudy 10 -12.2 5 -15 80 80 Calm 30.27 1025 10 16 0.00 0.00
3:49 pm 15:49 Cloudy 7 -14 1 -17 78 78 S 8 13 30.31 1026 10 16 0.00 0.00
3:53 pm 15:53 Cloudy 6 -14.4 1 -17.2 79 79 S 8 13 30.19 1022 10 16 0.00 0.00
4:13 pm 16:13 Mostly Cloudy 4 -15.6 0 -17.8 83 83 S 6 9 30.33 1027 10 16 0.00 0.00
4:28 pm 16:28 Partly Cloudy 2 -16.7 -1 -18.3 88 88 S 7 11 30.34 1027 10 16 0.00 0.00
4:53 pm 16:53 Clear 2 -16.7 -2 -18.9 83 83 S 7 11 30.21 1023 10 16 0.00 0.00
5:53 pm 17:53 Clear -2 -18.9 -5 -20.6 87 87 SSW 6 9 30.22 1023 10 16 0.00 0.00
6:53 pm 18:53 Clear -2 -18.9 -5 -20.6 87 87 Calm 30.22 1024 10 16 0.00 0.00
7:53 pm 19:53 Clear -3 -19.4 -7 -21.7 82 82 W 3 6 30.24 1024 10 16 0.00 0.00
8:53 pm 20:53 Clear -2 -18.9 -5 -20.6 87 87 NW 3 6 30.22 1023 10 16 0.00 0.00
9:53 pm 21:53 Clear -5 -20.6 -9 -22.8 83 83 W 7 11 30.21 1023 10 16 0.00 0.00
10:53 pm 22:53 Mostly Cloudy -1 -18.3 -5 -20.6 82 82 WSW 8 13 30.19 1022 10 16 0.00 0.00
11:53 pm 23:53 Cloudy 7 -13.9 2 -16.7 80 80 SW 15 24 30.17 1022 10 16 0.00 0.00

Powered by AerisWeather